Dewpoint
8 8 8 7 7 7 6 6 2 3 1 0 -0 -0 -2 -2 -3 -3 0 -5 -15 -7 1 4 4 3 3 3 2 1 1 2 1 1 0 1 1 1 1 0 0 -1 -3
8 8 7 7 7 6 6 5 4 3 2 1 -1 -5 -8 -4 -7 -8 -1 -0 -8 -11 -5 4 3 2 3 2 1 1 0 0 0 0 0 -0 0 -0 -0 -1 -1 -1 -1
7 8 8 7 7 6 6 4 -0 2 1 -1 -2 -3 -2 -4 -3 -2 -3 -1 -1 -4 -11 -8 -3 -1 0 1 1 0 -1 -1 -1 -1 -1 -1 -1 -0 -0 -1 -1 -1 -2
7 8 8 8 7 6 6 4 3 3 1 -1 -2 -3 -2 -3 -2 -3 -2 -3 -2 -2 -2 -5 -10 -7 -4 -3 -1 -2 -4 -7 -5 -2 -1 -0 0 0 1 0 -0 -1 -2
9 9 8 8 7 6 5 4 3 2 1 -1 -1 -2 -1 -2 -1 -4 -3 -3 -4 -6 -5 -5 -6 -9 -10 -11 -11 -11 -12 -11 -8 -3 -2 -2 -3 -2 -2 -2 -1 -2 -3
9 9 8 8 6 6 5 4 3 -0 -1 -1 -4 -3 -0 -1 -1 -2 -2 -3 -4 -3 -4 -4 -5 -5 -7 -8 -10 -12 -14 -13 -7 -5 -4 -4 -4 -3 -3 -3 -3 -3 -4
9 8 8 7 7 6 4 4 2 -1 -1 -3 0 1 1 1 0 -1 -2 -3 -4 -4 -4 -4 -5 -6 -8 -8 -8 -7 -9 -12 -13 -8 -4 -4 -4 -4 -4 -4 -4 -4 -3
8 7 8 7 7 5 4 3 -0 -0 -1 -0 1 2 2 1 0 -1 -2 -3 -3 -3 -4 -5 -5 -5 -6 -7 -8 -8 -8 -8 -9 -11 -10 -8 -5 -4 -4 -5 -5 -5 -5
9 9 8 7 7 5 5 0 -2 -2 -1 1 1 2 1 0 -2 -1 -1 -2 -3 -2 -3 -5 -5 -5 -5 -6 -6 -6 -6 -6 -7 -10 -11 -13 -7 -6 -6 -5 -6 -5 -5
8 9 8 8 7 5 4 2 -0 -1 -3 1 3 2 2 1 -2 -4 -2 -2 -2 -2 -3 -4 -5 -5 -5 -5 -6 -6 -6 -6 -7 -10 -18 -20 -19 -11 -8 -6 -6 -6 -6
9 9 8 7 6 5 2 0 -1 -3 -6 2 1 2 1 -1 -2 -3 -4 -4 -3 -5 -6 -5 -5 -5 -5 -6 -6 -6 -6 -7 -10 -15 -21 -25 -26 -20 -9 -8 -7 -7 -7
8 8 7 6 6 4 1 0 -1 -7 -4 2 3 2 -1 -3 -3 -3 -3 -4 -6 -7 -7 -6 -5 -6 -6 -6 -6 -7 -7 -9 -11 -17 -23 -26 -25 -26 -22 -9 -8 -7 -7
7 7 8 7 5 4 1 3 1 1 1 3 4 1 -3 -2 -2 -4 -6 -6 -6 -6 -7 -7 -6 -6 -7 -7 -7 -8 -8 -9 -11 -14 -21 -24 -27 -27 -25 -17 -9 -8 -8
8 8 5 8 7 4 3 4 0 2 0 4 1 -1 -1 -1 -3 -4 -4 -5 -5 -6 -8 -8 -8 -8 -7 -7 -8 -8 -9 -9 -10 -12 -17 -20 -24 -26 -25 -23 -16 -9 -8
6 7 9 7 5 3 4 3 2 -3 3 2 0 0 0 -1 -3 -3 -3 -4 -6 -6 -7 -9 -9 -9 -9 -8 -8 -9 -8 -9 -10 -12 -15 -17 -19 -21 -23 -24 -22 -12 -9
8 8 8 6 3 3 4 4 3 -1 1 0 -0 -2 -0 -1 -2 -4 -4 -6 -6 -6 -7 -8 -9 -9 -9 -9 -9 -9 -9 -10 -10 -12 -14 -15 -15 -15 -20 -23 -21 -14 -9
9 8 8 6 4 3 4 4 0 0 -1 -1 -1 0 0 -1 -3 -5 -6 -6 -6 -7 -7 -8 -8 -9 -9 -9 -9 -8 -9 -10 -11 -14 -15 -14 -14 -16 -19 -19 -19 -18 -15
8 8 7 7 6 3 4 2 -1 -0 -2 -1 -3 1 0 -2 -4 -5 -5 -6 -5 -5 -6 -7 -8 -8 -9 -9 -9 -9 -10 -11 -12 -14 -13 -15 -15 -15 -14 -14 -14 -16 -18
8 7 7 6 5 3 2 -1 -0 -3 -2 -2 0 -0 -1 -3 -3 -5 -5 -4 -4 -5 -6 -6 -6 -8 -9 -10 -10 -11 -11 -12 -13 -15 -16 -15 -14 -13 -13 -13 -12 -12 -15
8 7 6 5 3 3 -1 -2 -4 -2 -2 -0 -0 -0 -1 -2 -3 -3 -4 -3 -4 -4 -4 -5 -6 -8 -9 -10 -10 -12 -12 -14 -14 -15 -14 -13 -14 -13 -13 -13 -12 -11 -11
6 6 6 4 3 -1 -2 -3 -2 -1 -2 -1 -1 -1 -1 -2 -2 -3 -3 -4 -4 -4 -4 -5 -6 -7 -10 -10 -11 -13 -13 -13 -14 -13 -13 -13 -13 -13 -13 -13 -13 -11 -9
5 4 3 2 0 -3 -4 -2 -3 -2 -1 -1 -1 -1 -1 -1 -2 -3 -4 -4 -4 -4 -5 -5 -5 -6 -9 -10 -11 -12 -12 -13 -14 -13 -13 -12 -13 -13 -13 -14 -13 -11 -11
0 -1 -1 -2 -4 -4 -3 -4 -2 -2 -1 -1 -1 -2 -2 -3 -4 -5 -6 -6 -6 -6 -6 -5 -4 -5 -6 -9 -10 -11 -11 -12 -14 -13 -11 -12 -13 -13 -13 -14 -12 -11 -11
-1 -2 -3 -4 -2 -1 -1 -2 -2 -1 -2 -2 -2 -2 -4 -5 -6 -6 -7 -6 -6 -5 -5 -6 -5 -6 -5 -8 -11 -11 -11 -12 -12 -11 -12 -12 -13 -13 -12 -13 -12 -11 -11
0 0 -0 -1 -2 -4 -3 -1 -1 -2 -3 -3 -4 -5 -5 -5 -6 -6 -6 -6 -6 -6 -5 -5 -6 -5 -5 -9 -15 -12 -12 -12 -12 -12 -12 -12 -13 -13 -13 -13 -12 -10 -9
-0 -1 -2 -2 -2 -2 -3 -3 -5 -7 -8 -5 -5 -5 -5 -5 -5 -5 -5 -6 -7 -6 -5 -4 -5 -5 -7 -8 -13 -15 -14 -12 -11 -11 -11 -11 -12 -13 -13 -13 -11 -12 -12
Wind_Speed
11 11 12 11 10 11 8 7 3 3 1 2 3 3 4 4 4 3 9 5 2 6 5 4 4 6 6 5 6 7 8 7 6 9 10 11 13 11 13 16 15 17 20
15 13 13 11 10 9 8 6 6 3 3 2 2 2 4 3 3 5 1 9 4 4 8 8 7 6 6 6 6 5 7 7 8 9 9 12 13 15 17 15 13 16 17
15 12 11 11 10 10 10 11 7 5 4 4 3 2 2 3 2 1 2 2 8 4 7 10 11 12 13 13 13 11 9 8 9 11 12 13 13 15 16 14 17 17 18
16 13 11 11 11 10 9 8 6 5 5 5 4 1 1 2 4 2 0 3 4 6 10 6 11 13 15 17 18 19 19 18 15 12 11 11 11 13 13 15 16 18 19
15 14 11 12 13 10 10 9 8 8 6 5 3 2 3 3 5 3 3 2 5 4 5 12 12 12 15 17 19 20 20 18 15 10 11 12 15 16 18 19 20 21 22
16 14 13 14 13 11 10 11 10 7 7 6 5 6 7 6 4 5 5 5 6 5 6 8 9 13 14 18 15 16 16 13 12 11 13 14 15 17 18 20 22 22 23
16 16 13 16 15 13 13 14 10 10 7 7 4 7 11 12 10 6 7 8 9 8 8 9 8 7 15 15 17 13 13 17 14 14 14 16 17 19 20 22 23 23 24
18 18 18 16 17 15 17 16 14 10 8 8 4 8 12 10 10 9 9 10 11 10 10 11 10 10 9 8 15 18 21 17 16 18 20 21 21 21 22 23 24 25 26
22 20 19 18 19 18 18 19 18 14 10 9 8 7 8 10 9 10 12 11 11 12 10 12 12 11 11 10 12 14 18 20 23 22 25 27 24 24 24 25 26 27 28
25 20 20 21 21 19 17 19 17 14 14 8 8 9 12 11 8 9 10 12 13 12 12 11 12 13 12 13 13 18 23 25 28 28 30 30 31 28 25 25 26 27 28
25 23 21 21 22 21 18 21 17 17 15 10 9 14 14 12 12 11 13 12 12 11 10 12 11 13 13 13 14 21 24 25 30 30 32 33 32 29 26 26 26 27 28
26 25 20 24 27 23 18 15 19 16 14 16 24 15 14 14 13 14 16 15 15 16 16 14 14 13 13 14 15 20 28 32 31 34 32 30 30 31 30 28 27 27 28
29 24 23 30 31 29 29 31 29 26 18 22 23 11 14 14 13 13 15 15 16 15 15 15 16 15 14 15 16 22 26 32 34 34 35 31 32 32 30 29 27 26 27
28 28 31 36 38 35 32 30 23 23 22 27 14 12 13 14 12 13 14 14 16 17 16 17 15 16 16 17 19 25 29 23 30 34 33 34 31 29 29 30 30 27 27
26 29 35 36 38 34 33 27 23 22 25 15 13 13 15 14 13 14 14 14 14 18 18 16 17 17 18 17 18 21 23 25 30 34 31 33 32 32 31 32 32 30 28
32 33 34 32 35 37 34 27 26 25 16 19 14 15 16 15 16 16 15 15 15 17 21 18 19 19 19 21 23 28 26 27 28 29 31 33 35 36 35 33 33 29 26
32 31 32 32 35 38 35 28 23 17 21 16 17 16 17 19 17 16 16 15 17 18 22 23 21 21 20 21 23 23 23 25 25 25 28 33 36 37 33 31 29 27 24
24 26 28 32 31 33 26 24 21 21 15 16 17 22 20 17 19 19 18 20 20 20 23 25 25 24 23 23 24 24 25 22 24 24 26 33 33 32 31 28 26 25 23
23 25 27 27 28 26 22 21 16 15 21 16 24 18 18 21 23 23 23 24 23 23 25 26 26 25 24 23 24 24 24 23 23 22 26 27 28 29 30 30 26 24 21
20 23 23 22 20 22 23 17 22 24 19 30 18 18 20 22 25 26 27 28 28 29 30 28 28 27 25 24 22 24 25 22 23 22 24 23 24 24 27 28 27 24 23
11 11 11 12 16 21 18 26 24 18 25 24 18 19 22 25 28 31 31 33 32 33 32 31 29 28 25 25 23 23 24 23 22 21 22 21 21 22 22 23 23 22 19
11 10 8 10 15 22 24 26 25 22 28 25 25 25 25 28 29 27 33 36 38 44 45 35 33 30 29 26 24 24 23 22 24 17 20 24 21 22 22 22 21 22 27
3 5 5 10 15 18 19 24 25 27 32 29 34 34 24 22 25 29 31 34 38 40 41 48 38 34 30 25 24 25 23 23 23 21 21 25 21 23 21 20 22 25 27
3 2 6 11 11 12 17 18 24 27 28 30 23 21 25 28 28 29 33 35 36 37 40 38 47 48 31 25 24 23 22 22 22 20 18 25 22 22 20 22 23 23 25
7 6 5 6 9 13 18 19 21 25 19 21 23 24 25 27 30 32 34 39 39 39 38 39 36 37 36 30 29 22 23 20 24 21 16 20 21 22 23 25 22 22 17
5 2 4 7 10 13 12 14 21 21 23 23 24 25 26 29 32 34 35 38 39 40 36 36 38 38 35 34 33 32 28 25 22 23 16 18 19 19 25 20 13 24 24
Wind_Direction
183 184 183 173 169 177 165 159 139 134 61 79 86 81 69 77 73 96 294 333 179 188 210 239 284 308 312 318 327 322 337 356 353 345 343 346 337 343 339 339 338 344 340
200 196 186 176 176 170 176 164 165 157 162 197 105 112 118 90 39 106 347 322 328 200 213 213 235 249 264 296 303 294 309 334 336 336 334 333 317 309 322 319 327 335 340
203 192 186 183 182 180 176 183 192 181 176 189 191 108 36 32 20 48 111 292 327 297 237 245 258 263 265 273 280 286 301 304 316 320 320 321 316 314 319 312 318 323 327
206 196 197 191 190 188 181 186 176 193 196 200 207 169 343 338 332 332 142 154 193 300 306 276 262 263 267 271 274 278 282 289 297 312 317 312 309 307 318 315 309 313 316
205 198 206 200 205 195 194 197 199 203 212 208 226 257 273 278 305 289 254 238 235 207 253 296 290 283 274 274 272 274 277 282 290 312 317 316 314 310 305 304 304 304 306
209 207 212 212 215 203 205 206 206 210 203 210 232 254 260 266 269 253 259 250 249 249 274 256 298 306 307 304 302 280 274 284 295 308 314 315 314 310 306 305 303 301 297
218 223 217 227 219 207 212 210 208 228 220 224 244 289 282 261 282 234 240 237 247 260 252 270 278 257 301 313 308 298 284 298 289 301 312 311 312 310 308 306 303 301 298
225 235 217 227 225 211 209 222 217 217 215 220 250 296 299 276 239 246 237 241 242 246 267 271 264 276 277 277 289 298 294 293 295 299 302 305 308 308 305 303 299 296 293
227 225 230 225 222 211 221 231 238 222 219 238 274 293 307 293 300 246 227 232 240 252 258 259 275 279 278 277 280 292 295 298 301 304 308 308 308 306 302 299 295 292 290
237 222 228 226 224 219 219 233 230 224 218 230 271 287 268 272 280 276 235 238 228 247 259 260 263 269 275 278 280 277 280 288 300 306 309 308 307 305 303 300 296 291 288
235 227 227 230 226 225 223 231 223 226 223 257 238 281 269 267 270 269 274 263 244 250 263 262 266 271 274 275 278 281 285 289 297 302 305 308 307 305 303 301 298 295 292
236 227 221 233 234 232 224 226 225 232 232 271 299 278 253 259 268 267 267 266 266 267 268 265 267 273 273 276 279 277 280 288 299 302 306 308 305 304 303 301 298 295 292
241 243 260 259 246 235 231 245 249 248 253 271 287 252 258 264 265 265 266 270 271 269 265 266 268 272 278 278 280 281 286 293 299 304 306 308 307 306 305 301 298 295 291
261 270 272 257 249 245 245 247 242 262 246 292 249 241 258 257 259 257 262 269 274 269 267 270 270 274 277 275 271 278 288 295 293 293 303 305 306 305 302 299 298 295 291
259 264 263 250 246 241 248 242 245 234 269 254 238 246 264 255 253 258 260 262 265 274 273 274 277 275 280 278 280 279 284 289 287 295 304 307 310 309 305 303 301 297 292
254 253 254 254 241 245 247 251 242 230 246 231 227 272 256 257 259 258 258 258 260 264 274 276 277 277 280 279 278 281 286 289 295 297 301 302 303 306 306 304 300 297 293
252 250 257 255 245 246 251 248 233 240 231 221 237 273 259 257 256 259 260 260 260 262 270 277 277 279 279 281 283 282 284 286 289 294 294 295 298 306 308 307 302 298 296
254 255 251 254 247 244 244 239 229 225 227 224 244 286 266 258 256 256 256 259 261 263 268 275 277 281 281 283 281 282 285 284 287 290 293 296 302 308 316 319 319 309 300
256 252 256 251 246 243 239 225 228 216 220 235 290 278 263 259 256 255 257 260 260 263 267 268 274 279 279 280 281 283 281 283 290 294 296 298 302 302 309 317 316 315 308
257 256 254 252 245 230 217 222 209 217 226 281 285 267 263 259 260 261 263 264 263 264 264 265 268 275 277 279 278 281 281 283 287 291 292 299 300 301 306 308 306 303 302
265 257 256 243 220 218 220 210 224 235 255 284 283 276 271 268 262 258 263 264 266 267 267 260 261 267 273 277 277 280 278 283 286 290 295 295 297 300 304 305 301 301 296
246 254 245 220 214 218 231 255 264 246 281 276 279 284 277 269 269 274 275 275 274 267 262 267 260 262 267 270 274 274 274 279 285 287 290 293 301 302 304 305 300 299 288
248 243 248 234 232 247 259 256 256 253 287 282 291 295 286 283 277 275 275 277 274 273 268 257 256 258 266 265 267 267 268 271 277 283 290 293 300 300 303 302 298 297 299
129 195 219 223 218 241 250 265 270 286 290 291 299 289 280 279 279 278 277 273 271 271 274 263 250 252 254 256 254 258 262 267 273 281 284 287 298 298 300 303 302 299 287
127 147 168 198 239 262 270 280 283 291 292 285 285 285 283 282 280 279 276 275 274 268 264 263 262 250 252 257 256 248 250 262 269 275 279 285 294 295 300 305 304 301 311
162 204 259 274 278 285 304 289 284 288 289 293 293 292 288 284 285 286 286 284 282 271 264 248 251 250 251 255 256 257 257 254 257 270 276 284 291 298 304 304 302 302 303
Height
1576 1578 1578 1578 1578 1579 1578 1580 1578 1581 1581 1580 1579 1581 1578 1578 1579 1581 1576 1576 1575 1575 1576 1576 1575 1575 1575 1574 1575 1574 1573 1573 1573 1573 1572 1571 1569 1567 1566 1564 1561 1559 1557
1575 1577 1576 1576 1578 1578 1580 1579 1580 1581 1582 1583 1579 1579 1577 1579 1576 1577 1579 1574 1574 1573 1574 1574 1574 1575 1575 1574 1573 1572 1572 1572 1572 1572 1571 1570 1568 1567 1565 1563 1560 1558 1557
1572 1574 1576 1576 1577 1578 1578 1579 1579 1580 1581 1582 1580 1578 1577 1576 1574 1575 1575 1576 1573 1573 1573 1573 1573 1573 1572 1572 1571 1570 1570 1570 1569 1569 1568 1568 1567 1565 1563 1560 1559 1557 1555
1570 1571 1574 1574 1575 1575 1576 1577 1578 1580 1580 1581 1580 1577 1577 1576 1573 1572 1572 1574 1575 1572 1572 1571 1571 1570 1569 1569 1568 1568 1567 1566 1565 1565 1564 1564 1563 1561 1560 1559 1557 1555 1553
1568 1569 1572 1572 1571 1573 1574 1576 1576 1578 1576 1578 1577 1576 1575 1574 1572 1572 1570 1571 1571 1572 1573 1569 1568 1566 1565 1565 1564 1564 1563 1562 1562 1561 1560 1559 1558 1557 1556 1554 1553 1552 1550
1565 1566 1570 1567 1569 1571 1572 1574 1574 1574 1575 1574 1574 1573 1572 1570 1568 1568 1568 1569 1570 1568 1569 1568 1566 1562 1561 1560 1559 1559 1558 1559 1558 1557 1556 1555 1553 1552 1551 1549 1548 1547 1545
1562 1563 1566 1564 1566 1568 1572 1571 1569 1570 1571 1569 1571 1570 1568 1564 1563 1564 1565 1566 1567 1566 1565 1565 1563 1564 1560 1557 1554 1553 1554 1554 1553 1553 1551 1550 1549 1547 1545 1544 1543 1542 1540
1558 1560 1563 1560 1563 1565 1566 1565 1567 1568 1569 1567 1568 1567 1566 1564 1559 1559 1562 1563 1562 1562 1562 1561 1560 1559 1558 1558 1553 1550 1548 1549 1548 1547 1546 1544 1543 1542 1540 1539 1537 1536 1534
1554 1556 1557 1557 1560 1562 1559 1561 1562 1563 1565 1564 1563 1566 1564 1561 1560 1555 1554 1557 1558 1557 1558 1558 1557 1555 1554 1553 1553 1550 1544 1543 1543 1542 1540 1538 1536 1535 1533 1532 1531 1529 1528
1549 1551 1553 1553 1555 1556 1556 1557 1558 1558 1559 1562 1562 1561 1562 1561 1559 1556 1552 1551 1552 1552 1552 1552 1552 1552 1551 1549 1549 1546 1543 1539 1537 1535 1534 1532 1529 1527 1526 1524 1523 1522 1520
1544 1546 1549 1548 1550 1551 1552 1552 1553 1554 1555 1557 1558 1558 1559 1557 1556 1554 1551 1551 1548 1548 1548 1548 1548 1547 1546 1546 1545 1540 1537 1534 1533 1531 1529 1526 1523 1520 1519 1517 1515 1514 1512
1537 1541 1544 1544 1543 1544 1546 1550 1550 1550 1551 1554 1552 1552 1554 1554 1552 1550 1549 1547 1546 1546 1545 1544 1544 1543 1542 1541 1540 1537 1533 1531 1528 1524 1522 1520 1517 1514 1511 1509 1508 1506 1505
1531 1534 1537 1539 1536 1538 1540 1538 1543 1544 1545 1549 1546 1547 1552 1550 1548 1546 1546 1543 1542 1541 1541 1540 1539 1538 1537 1536 1535 1532 1528 1525 1522 1518 1515 1514 1511 1507 1504 1501 1500 1498 1497
1529 1525 1530 1529 1531 1533 1533 1535 1536 1540 1542 1542 1542 1543 1545 1545 1543 1542 1541 1539 1537 1536 1535 1535 1535 1534 1532 1532 1529 1527 1524 1522 1517 1512 1509 1507 1504 1501 1497 1494 1491 1490 1489
1516 1519 1522 1522 1525 1528 1528 1527 1530 1534 1538 1536 1538 1538 1539 1539 1537 1537 1535 1535 1533 1532 1531 1530 1530 1530 1528 1526 1524 1521 1519 1516 1511 1507 1504 1500 1496 1493 1490 1487 1484 1481 1479
1512 1511 1512 1515 1518 1519 1520 1521 1523 1527 1530 1531 1532 1532 1534 1535 1533 1531 1530 1529 1529 1529 1526 1527 1525 1524 1522 1521 1519 1516 1513 1509 1505 1502 1498 1494 1490 1487 1483 1480 1476 1472 1471
1506 1507 1507 1508 1510 1512 1513 1516 1520 1524 1525 1527 1527 1528 1528 1529 1527 1526 1526 1525 1525 1524 1522 1520 1519 1518 1516 1515 1513 1510 1507 1504 1500 1497 1493 1489 1485 1481 1477 1472 1468 1465 1463
1500 1501 1501 1501 1503 1507 1510 1512 1517 1519 1525 1522 1523 1523 1523 1524 1523 1521 1520 1520 1519 1518 1517 1514 1513 1512 1510 1509 1507 1504 1501 1498 1495 1491 1487 1483 1479 1474 1470 1467 1463 1460 1457
1495 1496 1496 1497 1499 1504 1506 1509 1513 1518 1516 1519 1518 1517 1518 1519 1517 1516 1514 1514 1512 1512 1510 1508 1505 1505 1503 1502 1500 1497 1495 1492 1488 1486 1482 1478 1473 1468 1465 1461 1458 1455 1453
1490 1491 1492 1493 1496 1498 1503 1506 1509 1507 1509 1514 1514 1513 1512 1511 1511 1510 1508 1507 1506 1504 1502 1501 1498 1497 1496 1494 1493 1491 1488 1486 1482 1480 1476 1472 1468 1464 1460 1456 1452 1450 1447
1485 1487 1489 1490 1492 1496 1500 1502 1502 1505 1507 1508 1508 1507 1506 1504 1503 1502 1502 1499 1498 1496 1494 1491 1490 1489 1487 1487 1486 1484 1481 1479 1476 1474 1470 1467 1464 1460 1456 1452 1448 1444 1441
1484 1485 1486 1488 1492 1494 1496 1499 1501 1503 1502 1502 1501 1500 1498 1496 1494 1493 1492 1490 1488 1486 1484 1483 1481 1480 1479 1479 1479 1478 1475 1473 1469 1469 1465 1461 1459 1454 1450 1447 1444 1440 1438
1483 1484 1486 1488 1490 1493 1495 1496 1496 1497 1496 1495 1493 1491 1489 1488 1488 1486 1483 1480 1477 1475 1473 1471 1471 1470 1471 1470 1470 1470 1469 1466 1463 1462 1460 1454 1453 1449 1445 1442 1438 1434 1431
1481 1483 1485 1487 1490 1492 1491 1492 1494 1491 1489 1487 1485 1485 1484 1482 1480 1478 1474 1471 1468 1464 1459 1459 1459 1459 1461 1461 1461 1462 1461 1459 1456 1454 1454 1449 1447 1443 1440 1436 1432 1429 1425
1482 1484 1485 1487 1487 1488 1488 1488 1487 1485 1483 1482 1481 1479 1477 1474 1471 1469 1466 1460 1456 1453 1452 1449 1448 1449 1449 1451 1452 1453 1452 1452 1448 1448 1448 1445 1442 1438 1435 1431 1427 1422 1420
1480 1481 1482 1484 1484 1485 1485 1483 1481 1479 1477 1475 1473 1471 1469 1467 1463 1460 1456 1451 1446 1443 1443 1440 1438 1437 1439 1440 1441 1442 1443 1442 1442 1441 1442 1440 1437 1435 1429 1426 1423 1421 1416